This demonstration page uses our WeatherBlox Daily Observations layout. Learn more.

Left ArrowRight Arrow

Hourly Observations for August 28, 2017

Temp ( °F °C ) Dew Point ( °F °C ) Humidity (%) Winds ( mph kmh ) Pressure ( in mb ) Visibility ( mi km ) Precip ( " mm )
12:52 am 00:52 Mostly Cloudy 67 19.4 67 19.4 100 100 N 5 7 30.00 1016 10 16 0.00 0.00
1:52 am 01:52 Partly Cloudy 67 19.4 66 18.9 97 97 N 3 6 29.99 1016 9 14 0.00 0.00
2:02 am 02:02 Partly Cloudy 66 18.9 66 18.9 100 100 N 7 11 30.00 1016 7 11 0.00 0.00
2:11 am 02:11 Mostly Cloudy with Mist and Fog 67 19.4 67 19.4 100 100 N 6 9 30.00 1016 5 8 0.00 0.00
2:19 am 02:19 Mostly Cloudy with Mist and Fog 66 18.9 66 18.9 100 100 N 5 7 30.00 1016 2 2 0.00 0.00
2:28 am 02:28 Mostly Cloudy with Fog 66 18.9 66 18.9 100 100 N 7 11 30.00 1016 1 1 0.00 0.00
2:40 am 02:40 Mostly Cloudy with Fog 66 18.9 66 18.9 100 100 N 7 11 30.00 1016 0 0 0.00 0.00
2:52 am 02:52 Mostly Cloudy with Fog 66 18.9 66 18.9 100 100 N 8 13 29.99 1016 0 0 0.00 0.00
3:52 am 03:52 Mostly Cloudy with Fog 66 18.9 66 18.9 100 100 N 6 9 29.98 1015 0 0 0.00 0.00
4:28 am 04:28 Mostly Cloudy with Fog 66 18.9 66 18.9 100 100 N 9 15 30.00 1016 1 1 0.00 0.00
4:52 am 04:52 Mostly Cloudy with Fog 66 18.9 66 18.9 100 100 N 7 11 29.98 1015 1 1 0.00 0.00
5:19 am 05:19 Mostly Cloudy with Fog 66 18.9 66 18.9 100 100 N 5 7 30.00 1016 0 0 0.00 0.00
5:40 am 05:40 Mostly Cloudy with Fog 66 18.9 66 18.9 100 100 N 5 7 30.00 1016 1 1 0.00 0.00
5:52 am 05:52 Mostly Cloudy with Fog 66 18.9 66 18.9 100 100 N 6 9 30.00 1016 1 1 0.00 0.00
6:52 am 06:52 Mostly Cloudy with Fog 66 18.9 66 18.9 100 100 N 6 9 30.01 1016 1 1 0.00 0.00
7:24 am 07:24 Mostly Cloudy with Mist and Fog 66 18.9 66 18.9 100 100 N 6 9 30.00 1016 1 2 0.00 0.00
7:39 am 07:39 Cloudy with Mist and Fog 66 18.9 66 18.9 100 100 N 7 11 30.00 1016 3 5 0.00 0.00
7:52 am 07:52 Cloudy with Mist and Fog 66 18.9 66 18.9 100 100 NNE 8 13 30.02 1017 5 8 0.00 0.00
8:44 am 08:44 Cloudy 68 20 67 19.4 96 96 N 8 13 30.03 1017 7 11 0.00 0.00
8:52 am 08:52 Cloudy 67 19.4 66 18.9 97 97 N 12 19 30.01 1016 8 13 0.00 0.00
9:52 am 09:52 Cloudy 69 20.6 66 18.9 90 90 NNW 10 17 30.02 1017 10 16 0.00 0.00
10:16 am 10:16 Cloudy 71 21.7 67 19.4 87 87 N 9 15 30.03 1017 10 16 0.00 0.00
10:52 am 10:52 Mostly Cloudy 73 22.8 67 19.4 81 81 N 7 11 30.01 1016 10 16 0.00 0.00
11:11 am 11:11 Mostly Cloudy 75 23.9 67 19.4 76 76 N 9 15 30.00 1016 10 16 0.00 0.00
11:52 am 11:52 Mostly Cloudy 77 25 67 19.4 71 71 N 7 11 30.01 1016 10 16 0.00 0.00
12:13 pm 12:13 Partly Cloudy 78 25.6 68 20 71 71 NNE 6 9 29.97 1015 10 16 0.00 0.00
12:26 pm 12:26 Mostly Cloudy 76 24.4 66 18.9 72 72 N 6 9 29.97 1015 10 16 0.00 0.00
12:52 pm 12:52 Mostly Cloudy 76 24.4 66 18.9 72 72 NNW 7 11 30.00 1016 10 16 0.00 0.00
1:52 pm 13:52 Partly Cloudy 80 26.7 67 19.4 64 64 NNE 12 19 29.99 1016 10 16 0.00 0.00
2:52 pm 14:52 Mostly Cloudy 78 25.6 65 18.3 64 64 NNW 8 13 29.98 1015 10 16 0.00 0.00
3:52 pm 15:52 Mostly Sunny 81 27.2 65 18.3 58 58 N 12 19 29.96 1015 10 16 0.00 0.00
4:52 pm 16:52 Sunny 81 27.2 63 17.2 54 54 NNW 10 17 29.96 1014 10 16 0.00 0.00
5:52 pm 17:52 Sunny 80 26.7 62 16.7 54 54 NNE 10 17 29.95 1014 10 16 0.00 0.00
6:52 pm 18:52 Sunny 78 25.6 63 17.2 60 60 N 9 15 29.95 1014 10 16 0.00 0.00
7:52 pm 19:52 Clear 73 22.8 64 17.8 74 74 N 10 17 29.96 1015 10 16 0.00 0.00
8:52 pm 20:52 Clear 70 21.1 64 17.8 82 82 N 12 19 29.97 1015 10 16 0.00 0.00
9:52 pm 21:52 Clear 69 20.6 64 17.8 84 84 N 10 17 29.99 1016 10 16 0.00 0.00
10:52 pm 22:52 Clear 68 20 64 17.8 87 87 VRB 3 6 30.00 1016 10 16 0.00 0.00
11:52 pm 23:52 Partly Cloudy 66 18.9 63 17.2 90 90 Calm 30.00 1016 10 16 0.00 0.00

Powered by AerisWeather